Regional Weather Roundup
Issued by NWS

Home | Current Version | Previous Version | Text Only | Print | Product List | Glossary Off
Versions: 1 2 3 4 5 6 7 8 9 10 11 12 13 14 15 16 17 18 19 20 21 22 23 24 25 26 27

000
ASUS45 KBOU 271810
RWRCO

WEATHER ROUNDUP FOR COLORADO
NATIONAL WEATHER SERVICE DENVER/BOULDER CO
1200 PM MDT TUE SEP 27 2016

NOTE: "FAIR" INDICATES FEW OR NO CLOUDS BELOW 12000 FEET WITH NO
SIGNIFICANT WEATHER AND/OR OBSTRUCTIONS TO VISIBILITY.

COZ001>005-013-030-031-271900-
...NORTHWEST COLORADO...

CITY           SKY/WX    TMP DP  RH WIND       PRES   REMARKS
CRAIG          FAIR      66  36  32 CALM      30.32F
HAYDEN         FAIR      63  34  34 NW3       30.33F
MEEKER         FAIR      67  39  35 S3        30.31F
MOUNT WERNER   NOT AVBL
STEAMBOAT SPGS FAIR      63  35  34 CALM      30.34F
WALDEN           N/A     61  28  29 W5        30.40F
$$

COZ006>008-011-271900-
...WEST CENTRAL VALLEYS...

CITY           SKY/WX    TMP DP  RH WIND       PRES   REMARKS
GRAND JUNCTION FAIR      70  37  29 S6        30.25F
MONTROSE       FAIR      67  39  35 N5        30.29F
EAGLE          SUNNY     61  30  31 CALM      30.36F
RIFLE          FAIR      65  37  35 CALM      30.28F
DELTA          FAIR      68  37  31 CALM      30.27F
NUCLA          FAIR      68  32  26 NW5       30.34F
$$

COZ017>023-064>068-271900-
...SOUTHWEST COLORADO...

CITY           SKY/WX    TMP DP  RH WIND       PRES   REMARKS
DURANGO        FAIR      64  31  28 CALM      30.35F
CORTEZ         FAIR      70  34  26 SW8       30.31F
PAGOSA SPRINGS FAIR      66  28  23 S9        30.39F
TELLURIDE      FAIR      63  31  30 W6        30.46F
WOLF CREEK PAS FAIR      50  32  50 S8        30.66S
$$

COZ009-010-012-014-032>034-037-058>063-271900-
...CENTRAL COLORADO...

CITY           SKY/WX    TMP DP  RH WIND       PRES   REMARKS
ASPEN          FAIR      66  32  28 N6        30.37F
BUENA VISTA    FAIR      66  25  21 SE3       30.37F
COPPER MTN     FAIR      55  23  28 NW7       30.64S
BERTHOUD PASS  FAIR      46  32  57 N8        30.67F
COTTONWOOD PAS FAIR      64  19  17 E6        30.49F
GUNNISON       FAIR      59  32  36 W5        30.39F
KREMMLING      FAIR      61  25  25 CALM      30.39F
LEADVILLE      FAIR      62  20  19 N8        30.47F
MONARCH PASS   FAIR      50  27  40 W14       30.73F
SALIDA         FAIR      66  30  25 CALM      30.42F
SUNLIGHT       FAIR      54  32  43 W3        30.60S
WILKERSON PASS FAIR      54  21  28 S3        30.61F
$$

COZ069>075-271900-
...SAN LUIS VALLEY/SANGRE DE CRISTO MOUNTAINS...

CITY           SKY/WX    TMP DP  RH WIND       PRES   REMARKS
ALAMOSA        FAIR      63  33  32 CALM      30.39F
LA VETA PASS   FAIR      59  30  33 MISG      30.52F
SAGUACHE       NOT AVBL
$$

COZ035-036-038>040-271900-
...NORTHERN COLORADO FRONT RANGE...

CITY           SKY/WX    TMP DP  RH WIND       PRES   REMARKS
DENVER INTL AP FAIR      74  31  20 W5        30.23F
DMNS CITY PARK   N/A     75  34  22 E3        30.23F
AURORA         SUNNY     74  33  22 VRB3      30.24F
FRONT RANGE AP SUNNY     75  30  19 CALM      30.24F
ERIE MUNI ARPT FAIR      74  32  20 S6        30.22F
BOULDER MUN AP FAIR      73  34  23 E5        30.22F
CENTENNIAL     FAIR      74  31  20 VRB5      30.25F
BROOMFIELD     SUNNY     73  34  23 S5        30.25F
FORT COLLINS   FAIR      73  37  27 S6        30.19F
LONGMONT       FAIR      76  35  22 S3        30.22F
$$

COZ041-046-047-076>085-087-088-271900-
...PIKES PEAK/PALMER DIVIDE AND SOUTHERN FOOTHILLS...

CITY           SKY/WX    TMP DP  RH WIND       PRES   REMARKS
COLO. SPRINGS  FAIR      73  29  19 VRB3      30.27F
A. F. ACADEMY  FAIR      73  32  22 SE8       30.27F
SCHRIEVER AFB  NOT AVBL
ELLICOTT       NOT AVBL
FALCON         FAIR      72  28  19 CALM      30.31F
FORT CARSON    FAIR      75  30  19 VRB7      30.24F
LIMON          FAIR      79  28  15 VRB7      30.22F
MONUMENT HILL  FAIR      70  28  21 CALM      30.32F
TRINIDAD       FAIR      75  31  19 VRB6      30.25F
$$

COZ042>045-048>051-090-091-271900-
...NORTHEAST COLORADO...

CITY           SKY/WX    TMP DP  RH WIND       PRES   REMARKS
GREELEY ARPT   FAIR      73  39  29 CALM      30.20F
AKRON          FAIR      75  36  24 NW8       30.18F
BURLINGTON     FAIR      78  34  20 W10       30.17F
WRAY           NOT AVBL
STERLING       FAIR      75  41  29 S6        30.14F
HOLYOKE        FAIR      81  41  24 W7        30.12F
FORT MORGAN    FAIR      76  35  22 W5        30.19F
$$

COZ086-089-092>099-271900-
...SOUTHEAST COLORADO...

CITY           SKY/WX    TMP DP  RH WIND       PRES   REMARKS
PUEBLO         FAIR      76  32  20 CALM      30.18F
LA JUNTA       FAIR      77  35  21 CALM      30.18F
LAMAR          FAIR      77  36  22 VRB5      30.15F
SPRINGFIELD    NOT AVBL
$$




USA.gov is the U.S. government's official web portal to all federal, state and local government web resources and services.